Time,TemperatureF,DewpointF,PressureIn,WindDirection,WindDirectionDegrees,WindSpeedMPH,WindSpeedGustMPH,Humidity,HourlyPrecipIn,Conditions,Clouds,dailyrainin,SoftwareType,DateUTC
2013-06-23 00:03:00,79.3,67.0,28.88,North,0,0.0,0.0,66,0.00,,---,0.00,VWS V14.01,2013-06-23 05:03:00,
2013-06-23 00:08:00,79.2,66.8,28.88,North,0,0.0,0.0,66,0.00,,---,0.00,VWS V14.01,2013-06-23 05:08:00,
2013-06-23 00:13:00,79.2,66.8,28.88,North,0,0.0,0.0,66,0.00,,---,0.00,VWS V14.01,2013-06-23 05:13:00,
2013-06-23 00:18:00,79.0,66.7,28.88,North,0,0.0,0.0,66,0.00,,---,0.00,VWS V14.01,2013-06-23 05:18:00,
2013-06-23 00:23:00,78.8,66.5,28.88,North,0,0.0,0.0,66,0.00,,---,0.00,VWS V14.01,2013-06-23 05:23:00,
2013-06-23 00:28:00,78.6,66.8,28.88,North,0,0.0,0.0,67,0.00,,---,0.00,VWS V14.01,2013-06-23 05:28:00,
2013-06-23 00:33:00,78.6,66.8,28.88,North,0,0.0,0.0,67,0.00,,---,0.00,VWS V14.01,2013-06-23 05:33:00,
2013-06-23 00:38:00,78.4,66.6,28.88,North,0,0.0,0.0,67,0.00,,---,0.00,VWS V14.01,2013-06-23 05:38:00,
2013-06-23 00:43:00,78.3,66.4,28.85,North,0,0.0,0.0,67,0.00,,---,0.00,VWS V14.01,2013-06-23 05:43:00,
2013-06-23 00:48:00,78.3,66.8,28.85,North,0,0.0,0.0,68,0.00,,---,0.00,VWS V14.01,2013-06-23 05:48:00,
2013-06-23 00:53:00,78.3,66.8,28.85,North,0,0.0,0.0,68,0.00,,---,0.00,VWS V14.01,2013-06-23 05:53:00,
2013-06-23 00:58:00,78.3,66.8,28.85,North,0,0.0,0.0,68,0.00,,---,0.00,VWS V14.01,2013-06-23 05:58:00,
2013-06-23 01:01:00,78.3,66.8,28.85,North,0,0.0,0.0,68,0.00,,---,0.00,VWS V14.01,2013-06-23 06:01:00,
2013-06-23 01:06:00,78.3,66.8,28.85,North,0,0.0,0.0,68,0.00,,---,0.00,VWS V14.01,2013-06-23 06:06:00,
2013-06-23 01:11:00,78.1,66.7,28.85,North,0,0.0,0.0,68,0.00,,---,0.00,VWS V14.01,2013-06-23 06:11:00,
2013-06-23 01:16:00,78.1,66.7,28.85,North,0,0.0,0.0,68,0.00,,---,0.00,VWS V14.01,2013-06-23 06:16:00,
2013-06-23 01:21:00,78.1,66.7,28.85,North,0,0.0,0.0,68,0.00,,---,0.00,VWS V14.01,2013-06-23 06:21:00,
2013-06-23 01:26:00,77.9,66.5,28.85,North,0,0.0,0.0,68,0.00,,---,0.00,VWS V14.01,2013-06-23 06:26:00,
2013-06-23 01:31:00,77.9,66.5,28.85,North,0,0.0,0.0,68,0.00,,---,0.00,VWS V14.01,2013-06-23 06:31:00,
2013-06-23 01:36:00,77.7,66.8,28.85,North,0,0.0,0.0,69,0.00,,---,0.00,VWS V14.01,2013-06-23 06:36:00,
2013-06-23 01:41:00,77.5,66.6,28.85,North,0,0.0,0.0,69,0.00,,---,0.00,VWS V14.01,2013-06-23 06:41:00,
2013-06-23 01:46:00,77.5,66.6,28.85,North,0,0.0,0.0,69,0.00,,---,0.00,VWS V14.01,2013-06-23 06:46:00,
2013-06-23 01:51:00,77.5,66.6,28.85,North,0,0.0,0.0,69,0.00,,---,0.00,VWS V14.01,2013-06-23 06:51:00,
2013-06-23 01:56:00,77.5,66.6,28.85,North,0,0.0,0.0,69,0.00,,---,0.00,VWS V14.01,2013-06-23 06:56:00,
2013-06-23 02:01:00,77.4,66.8,28.85,North,0,0.0,0.0,70,0.00,,---,0.00,VWS V14.01,2013-06-23 07:01:00,
2013-06-23 02:06:00,77.4,67.2,28.85,North,0,0.0,0.0,71,0.00,,---,0.00,VWS V14.01,2013-06-23 07:06:00,
2013-06-23 02:11:00,77.4,67.2,28.85,North,0,0.0,0.0,71,0.00,,---,0.00,VWS V14.01,2013-06-23 07:11:00,
2013-06-23 02:16:00,77.4,67.6,28.88,North,0,0.0,0.0,72,0.00,,---,0.00,VWS V14.01,2013-06-23 07:16:00,
2013-06-23 02:21:00,77.2,67.5,28.88,North,0,0.0,0.0,72,0.00,,---,0.00,VWS V14.01,2013-06-23 07:21:00,
2013-06-23 02:26:00,77.2,67.9,28.88,North,0,0.0,0.0,73,0.00,,---,0.00,VWS V14.01,2013-06-23 07:26:00,
2013-06-23 02:31:00,77.2,67.9,28.88,North,0,0.0,0.0,73,0.00,,---,0.00,VWS V14.01,2013-06-23 07:31:00,
2013-06-23 02:36:00,77.2,68.3,28.88,North,0,0.0,0.0,74,0.00,,---,0.00,VWS V14.01,2013-06-23 07:36:00,
2013-06-23 02:41:00,77.0,68.1,28.88,North,0,0.0,0.0,74,0.00,,---,0.00,VWS V14.01,2013-06-23 07:41:00,
2013-06-23 02:47:00,77.0,68.1,28.88,North,0,0.0,0.0,74,0.00,,---,0.00,VWS V14.01,2013-06-23 07:47:00,
2013-06-23 02:52:00,77.0,68.1,28.88,North,0,0.0,0.0,74,0.00,,---,0.00,VWS V14.01,2013-06-23 07:52:00,
2013-06-23 02:57:00,76.8,68.3,28.88,North,0,0.0,0.0,75,0.00,,---,0.00,VWS V14.01,2013-06-23 07:57:00,
2013-06-23 03:02:00,76.8,68.3,28.88,North,0,0.0,0.0,75,0.00,,---,0.00,VWS V14.01,2013-06-23 08:02:00,
2013-06-23 03:07:00,76.6,68.5,28.88,North,0,0.0,0.0,76,0.00,,---,0.00,VWS V14.01,2013-06-23 08:07:00,
2013-06-23 03:12:00,76.6,68.5,28.88,North,0,0.0,0.0,76,0.00,,---,0.00,VWS V14.01,2013-06-23 08:12:00,
2013-06-23 03:17:00,76.5,68.3,28.88,North,0,0.0,0.0,76,0.00,,---,0.00,VWS V14.01,2013-06-23 08:17:00,
2013-06-23 03:22:00,76.5,68.7,28.88,North,0,0.0,0.0,77,0.00,,---,0.00,VWS V14.01,2013-06-23 08:22:00,
2013-06-23 03:27:00,76.5,68.7,28.88,North,0,0.0,0.0,77,0.00,,---,0.00,VWS V14.01,2013-06-23 08:27:00,
2013-06-23 03:32:00,76.3,68.6,28.88,North,0,0.0,0.0,77,0.00,,---,0.00,VWS V14.01,2013-06-23 08:32:00,
2013-06-23 03:37:00,76.3,68.9,28.88,North,0,0.0,0.0,78,0.00,,---,0.00,VWS V14.01,2013-06-23 08:37:00,
2013-06-23 03:42:00,76.1,68.8,28.88,North,0,0.0,0.0,78,0.00,,---,0.00,VWS V14.01,2013-06-23 08:42:00,
2013-06-23 03:47:00,76.1,68.8,28.88,North,0,0.0,0.0,78,0.00,,---,0.00,VWS V14.01,2013-06-23 08:47:00,
2013-06-23 03:52:00,76.1,68.8,28.88,North,0,0.0,0.0,78,0.00,,---,0.00,VWS V14.01,2013-06-23 08:52:00,
2013-06-23 03:57:00,75.9,68.6,28.88,North,0,0.0,0.0,78,0.00,,---,0.00,VWS V14.01,2013-06-23 08:57:00,
2013-06-23 04:02:00,75.9,68.9,28.88,North,0,0.0,0.0,79,0.00,,---,0.00,VWS V14.01,2013-06-23 09:02:00,
2013-06-23 04:07:00,75.7,68.8,28.88,North,0,0.0,0.0,79,0.00,,---,0.00,VWS V14.01,2013-06-23 09:07:00,
2013-06-23 04:12:00,75.7,68.8,28.88,North,0,0.0,0.0,79,0.00,,---,0.00,VWS V14.01,2013-06-23 09:12:00,
2013-06-23 04:17:00,75.7,69.1,28.85,North,0,0.0,0.0,80,0.00,,---,0.00,VWS V14.01,2013-06-23 09:17:00,
2013-06-23 04:22:00,75.6,69.0,28.85,North,0,0.0,0.0,80,0.00,,---,0.00,VWS V14.01,2013-06-23 09:22:00,
2013-06-23 04:27:00,75.6,69.0,28.85,North,0,0.0,0.0,80,0.00,,---,0.00,VWS V14.01,2013-06-23 09:27:00,
2013-06-23 04:32:00,75.6,69.0,28.88,North,0,0.0,0.0,80,0.00,,---,0.00,VWS V14.01,2013-06-23 09:32:00,
2013-06-23 04:37:00,75.6,69.3,28.88,North,0,0.0,0.0,81,0.00,,---,0.00,VWS V14.01,2013-06-23 09:37:00,
2013-06-23 04:43:00,75.6,69.3,28.88,North,0,0.0,0.0,81,0.00,,---,0.00,VWS V14.01,2013-06-23 09:43:00,
2013-06-23 04:48:00,75.6,69.3,28.88,North,0,0.0,0.0,81,0.00,,---,0.00,VWS V14.01,2013-06-23 09:48:00,
2013-06-23 04:53:00,75.4,69.2,28.88,North,0,0.0,0.0,81,0.00,,---,0.00,VWS V14.01,2013-06-23 09:53:00,
2013-06-23 04:58:00,75.4,69.2,28.88,North,0,0.0,0.0,81,0.00,,---,0.00,VWS V14.01,2013-06-23 09:58:00,
2013-06-23 05:03:00,75.4,69.2,28.85,North,0,0.0,0.0,81,0.00,,---,0.00,VWS V14.01,2013-06-23 10:03:00,
2013-06-23 05:08:00,75.4,69.2,28.85,North,0,0.0,0.0,81,0.00,,---,0.00,VWS V14.01,2013-06-23 10:08:00,
2013-06-23 05:13:00,75.2,69.3,28.85,North,0,0.0,0.0,82,0.00,,---,0.00,VWS V14.01,2013-06-23 10:13:00,
2013-06-23 05:18:00,75.2,69.3,28.85,North,0,0.0,0.0,82,0.00,,---,0.00,VWS V14.01,2013-06-23 10:18:00,
2013-06-23 05:23:00,75.0,69.2,28.85,North,0,0.0,0.0,82,0.00,,---,0.00,VWS V14.01,2013-06-23 10:23:00,
2013-06-23 05:28:00,75.0,69.5,28.85,North,0,0.0,0.0,83,0.00,,---,0.00,VWS V14.01,2013-06-23 10:28:00,
2013-06-23 05:33:00,75.0,69.5,28.85,North,0,0.0,0.0,83,0.00,,---,0.00,VWS V14.01,2013-06-23 10:33:00,
2013-06-23 05:38:00,75.0,69.5,28.85,North,0,0.0,0.0,83,0.00,,---,0.00,VWS V14.01,2013-06-23 10:38:00,
2013-06-23 05:43:00,74.8,69.3,28.85,North,0,0.0,0.0,83,0.00,,---,0.00,VWS V14.01,2013-06-23 10:43:00,
2013-06-23 05:48:00,74.8,69.3,28.85,North,0,0.0,0.0,83,0.00,,---,0.00,VWS V14.01,2013-06-23 10:48:00,
2013-06-23 05:53:00,74.8,69.3,28.85,North,0,0.0,0.0,83,0.00,,---,0.00,VWS V14.01,2013-06-23 10:53:00,
2013-06-23 05:58:00,74.8,69.3,28.85,North,0,0.0,0.0,83,0.00,,---,0.00,VWS V14.01,2013-06-23 10:58:00,
2013-06-23 06:03:00,74.8,69.7,28.88,North,0,0.0,0.0,84,0.00,,---,0.00,VWS V14.01,2013-06-23 11:03:00,
2013-06-23 06:08:00,75.0,69.5,28.88,North,0,0.0,0.0,83,0.00,,---,0.00,VWS V14.01,2013-06-23 11:08:00,
2013-06-23 06:13:00,75.0,69.5,28.88,North,0,0.0,0.0,83,0.00,,---,0.00,VWS V14.01,2013-06-23 11:13:00,
2013-06-23 06:18:00,75.2,69.3,28.88,North,0,0.0,0.0,82,0.00,,---,0.00,VWS V14.01,2013-06-23 11:18:00,
2013-06-23 06:23:00,75.4,69.5,28.88,North,0,0.0,0.0,82,0.00,,---,0.00,VWS V14.01,2013-06-23 11:23:00,
2013-06-23 06:28:00,75.6,69.3,28.85,North,0,0.0,0.0,81,0.00,,---,0.00,VWS V14.01,2013-06-23 11:28:00,
2013-06-23 06:33:00,75.6,69.3,28.85,North,0,0.0,0.0,81,0.00,,---,0.00,VWS V14.01,2013-06-23 11:33:00,
2013-06-23 06:38:00,75.7,69.5,28.85,North,0,0.0,0.0,81,0.00,,---,0.00,VWS V14.01,2013-06-23 11:38:00,
2013-06-23 06:43:00,75.9,69.3,28.85,North,0,0.0,0.0,80,0.00,,---,0.00,VWS V14.01,2013-06-23 11:43:00,
2013-06-23 06:48:00,76.1,69.5,28.85,North,0,0.0,0.0,80,0.00,,---,0.00,VWS V14.01,2013-06-23 11:48:00,
2013-06-23 06:53:00,76.1,69.5,28.85,North,0,0.0,0.0,80,0.00,,---,0.00,VWS V14.01,2013-06-23 11:53:00,
2013-06-23 06:58:00,76.3,69.3,28.85,North,0,0.0,0.0,79,0.00,,---,0.00,VWS V14.01,2013-06-23 11:58:00,
2013-06-23 07:03:00,76.3,69.3,28.85,North,0,0.0,0.0,79,0.00,,---,0.00,VWS V14.01,2013-06-23 12:03:00,
2013-06-23 07:08:00,76.5,69.5,28.85,North,0,0.0,0.0,79,0.00,,---,0.00,VWS V14.01,2013-06-23 12:08:00,
2013-06-23 07:13:00,76.5,69.5,28.85,North,0,0.0,0.0,79,0.00,,---,0.00,VWS V14.01,2013-06-23 12:13:00,
2013-06-23 07:18:00,76.5,69.5,28.85,North,0,0.0,0.0,79,0.00,,---,0.00,VWS V14.01,2013-06-23 12:18:00,
2013-06-23 07:23:00,76.5,69.5,28.85,North,0,0.0,0.0,79,0.00,,---,0.00,VWS V14.01,2013-06-23 12:23:00,
2013-06-23 07:28:00,76.3,69.3,28.88,North,0,0.0,0.0,79,0.00,,---,0.00,VWS V14.01,2013-06-23 12:28:00,
2013-06-23 07:33:00,76.3,69.3,28.88,North,0,0.0,0.0,79,0.00,,---,0.00,VWS V14.01,2013-06-23 12:33:00,
2013-06-23 07:38:00,76.1,69.1,28.88,North,0,0.0,0.0,79,0.00,,---,0.00,VWS V14.01,2013-06-23 12:38:00,
2013-06-23 07:43:00,74.8,67.9,28.91,North,0,0.0,0.0,79,0.00,,---,0.00,VWS V14.01,2013-06-23 12:43:00,
2013-06-23 07:48:00,73.6,66.7,28.91,North,0,0.0,0.0,79,0.00,,---,0.00,VWS V14.01,2013-06-23 12:48:00,
2013-06-23 07:53:00,71.8,64.6,28.91,North,0,0.0,0.0,78,0.00,,---,0.00,VWS V14.01,2013-06-23 12:53:00,
2013-06-23 07:58:00,70.2,63.0,28.91,North,0,0.0,0.0,78,0.00,,---,0.00,VWS V14.01,2013-06-23 12:58:00,
2013-06-23 08:03:00,69.3,62.5,28.91,WSW,248,0.0,0.0,79,0.00,,---,0.00,VWS V14.01,2013-06-23 13:03:00,
2013-06-23 08:08:00,68.4,62.0,28.91,WSW,248,0.0,0.0,80,0.00,,---,0.00,VWS V14.01,2013-06-23 13:08:00,
2013-06-23 08:13:00,67.6,62.0,28.91,West,270,0.0,0.0,82,0.00,,---,0.00,VWS V14.01,2013-06-23 13:13:00,
2013-06-23 08:18:00,67.5,62.5,28.91,West,270,0.0,0.0,84,0.00,,---,0.00,VWS V14.01,2013-06-23 13:18:00,
2013-06-23 08:23:00,66.9,62.3,28.91,SW,225,0.0,0.0,85,0.00,,---,0.00,VWS V14.01,2013-06-23 13:23:00,
2013-06-23 08:28:00,66.7,62.4,28.94,WSW,248,0.0,0.0,86,0.00,,---,0.00,VWS V14.01,2013-06-23 13:28:00,
2013-06-23 08:33:00,66.6,62.6,28.94,WSW,248,0.0,0.0,87,0.00,,---,0.00,VWS V14.01,2013-06-23 13:33:00,
2013-06-23 08:38:00,66.4,63.0,28.94,WSW,248,0.0,0.0,89,0.00,,---,0.00,VWS V14.01,2013-06-23 13:38:00,
2013-06-23 08:43:00,66.4,63.0,28.97,WSW,248,0.0,0.0,89,0.00,,---,0.00,VWS V14.01,2013-06-23 13:43:00,
2013-06-23 08:48:00,66.4,63.4,28.97,WSW,248,0.0,0.0,90,0.00,,---,0.00,VWS V14.01,2013-06-23 13:48:00,
2013-06-23 08:54:00,66.6,63.9,28.97,WSW,248,0.0,0.0,91,0.00,,---,0.00,VWS V14.01,2013-06-23 13:54:00,
2013-06-23 08:59:00,66.4,64.0,29.00,WSW,248,0.0,0.0,92,0.00,,---,0.00,VWS V14.01,2013-06-23 13:59:00,
2013-06-23 09:04:00,66.4,64.0,29.00,WSW,248,0.0,0.0,92,0.00,,---,0.00,VWS V14.01,2013-06-23 14:04:00,
2013-06-23 09:09:00,66.6,64.5,29.00,WSW,248,0.0,0.0,93,0.00,,---,0.00,VWS V14.01,2013-06-23 14:09:00,
2013-06-23 09:14:00,66.6,64.8,28.97,WSW,248,0.0,0.0,94,0.00,,---,0.00,VWS V14.01,2013-06-23 14:14:00,
2013-06-23 09:19:00,66.6,65.1,28.97,WSW,248,0.0,0.0,95,0.00,,---,0.00,VWS V14.01,2013-06-23 14:19:00,
2013-06-23 09:24:00,66.6,65.1,28.97,WSW,248,0.0,0.0,95,0.00,,---,0.00,VWS V14.01,2013-06-23 14:24:00,
2013-06-23 09:29:00,66.6,65.1,28.97,WSW,248,0.0,0.0,95,0.00,,---,0.00,VWS V14.01,2013-06-23 14:29:00,
2013-06-23 09:34:00,66.6,64.8,28.97,WSW,248,0.0,0.0,94,0.00,,---,0.00,VWS V14.01,2013-06-23 14:34:00,
2013-06-23 09:39:00,66.6,65.1,28.97,WSW,248,0.0,0.0,95,0.00,,---,0.00,VWS V14.01,2013-06-23 14:39:00,
2013-06-23 09:44:00,66.6,65.1,28.97,WSW,248,0.0,0.0,95,0.00,,---,0.00,VWS V14.01,2013-06-23 14:44:00,
2013-06-23 09:49:00,66.7,65.3,28.97,WSW,248,0.0,0.0,95,0.00,,---,0.00,VWS V14.01,2013-06-23 14:49:00,
2013-06-23 09:55:00,66.6,65.4,28.97,West,270,0.0,1.6,96,0.00,,---,0.00,VWS V14.01,2013-06-23 14:55:00,
2013-06-23 10:00:00,66.7,65.6,28.97,NE,45,2.0,2.0,96,0.00,,---,0.00,VWS V14.01,2013-06-23 15:00:00,
2013-06-23 10:05:00,66.7,65.9,28.97,NE,45,3.1,3.1,97,0.00,,---,0.00,VWS V14.01,2013-06-23 15:05:00,
2013-06-23 10:10:00,66.7,65.9,28.97,NE,45,0.0,0.9,97,0.00,,---,0.00,VWS V14.01,2013-06-23 15:10:00,
2013-06-23 10:15:00,66.7,65.9,28.94,NE,45,0.0,0.0,97,0.00,,---,0.00,VWS V14.01,2013-06-23 15:15:00,
2013-06-23 10:20:00,66.7,65.9,28.94,NE,45,0.0,0.0,97,0.00,,---,0.00,VWS V14.01,2013-06-23 15:20:00,
2013-06-23 10:25:00,66.7,65.9,28.94,NE,45,2.0,2.0,97,0.00,,---,0.00,VWS V14.01,2013-06-23 15:25:00,
2013-06-23 10:30:00,66.7,65.9,28.91,North,0,0.0,0.0,97,0.00,,---,0.00,VWS V14.01,2013-06-23 15:30:00,
2013-06-23 10:35:00,66.6,65.7,28.91,NE,45,0.0,0.0,97,0.00,,---,0.00,VWS V14.01,2013-06-23 15:35:00,
2013-06-23 10:40:00,66.6,65.7,28.91,NE,45,1.1,2.9,97,0.00,,---,0.00,VWS V14.01,2013-06-23 15:40:00,
2013-06-23 10:45:00,66.4,65.5,28.85,NE,45,0.0,0.0,97,0.00,,---,0.00,VWS V14.01,2013-06-23 15:45:00,
2013-06-23 10:50:00,66.4,65.5,28.85,ENE,68,0.0,1.3,97,0.00,,---,0.00,VWS V14.01,2013-06-23 15:50:00,
2013-06-23 10:55:00,66.2,65.3,28.85,NE,45,1.1,1.3,97,0.00,,---,0.00,VWS V14.01,2013-06-23 15:55:00,
2013-06-23 11:00:00,66.0,65.4,28.85,NE,45,0.9,0.9,98,0.00,,---,0.00,VWS V14.01,2013-06-23 16:00:00,
2013-06-23 11:06:00,66.0,65.4,28.85,East,90,0.9,1.1,98,0.00,,---,0.00,VWS V14.01,2013-06-23 16:06:00,
2013-06-23 11:11:00,65.8,65.3,28.85,ESE,112,0.9,0.9,98,0.00,,---,0.00,VWS V14.01,2013-06-23 16:11:00,
2013-06-23 11:16:00,65.8,65.3,28.85,NNE,22,0.0,0.0,98,0.00,,---,0.00,VWS V14.01,2013-06-23 16:16:00,
2013-06-23 11:21:00,65.8,65.3,28.85,NNE,22,0.0,0.0,98,0.00,,---,0.00,VWS V14.01,2013-06-23 16:21:00,
2013-06-23 11:26:00,65.8,65.0,28.85,NNE,22,0.0,0.0,97,0.00,,---,0.00,VWS V14.01,2013-06-23 16:26:00,
2013-06-23 11:31:00,65.8,65.3,28.85,NNE,22,0.0,0.0,98,0.00,,---,0.00,VWS V14.01,2013-06-23 16:31:00,
2013-06-23 11:36:00,66.0,65.4,28.85,NNE,22,0.0,0.0,98,0.00,,---,0.00,VWS V14.01,2013-06-23 16:36:00,
2013-06-23 11:41:00,66.0,65.4,28.85,NNE,22,0.0,0.0,98,0.00,,---,0.00,VWS V14.01,2013-06-23 16:41:00,
2013-06-23 11:46:00,66.2,65.6,28.85,NNE,22,0.0,0.0,98,0.00,,---,0.00,VWS V14.01,2013-06-23 16:46:00,
2013-06-23 11:51:00,66.4,65.8,28.85,NNE,22,0.0,0.0,98,0.00,,---,0.00,VWS V14.01,2013-06-23 16:51:00,
2013-06-23 11:56:00,66.6,66.0,28.85,NNE,22,0.0,0.0,98,0.00,,---,0.00,VWS V14.01,2013-06-23 16:56:00,
2013-06-23 11:57:00,66.6,66.0,28.85,NNE,22,0.0,0.0,98,0.00,,---,0.00,VWS V14.01,2013-06-23 16:57:00,
2013-06-23 11:58:00,66.7,66.2,28.85,NNE,22,0.0,0.0,98,0.00,,---,0.00,VWS V14.01,2013-06-23 16:58:00,
2013-06-23 12:03:00,66.9,66.3,28.85,NNE,22,0.0,0.0,98,0.00,,---,0.00,VWS V14.01,2013-06-23 17:03:00,
2013-06-23 12:08:00,67.1,66.5,28.85,NNE,22,0.0,0.0,98,0.00,,---,0.00,VWS V14.01,2013-06-23 17:08:00,
2013-06-23 12:13:00,67.3,66.7,28.91,NNE,22,0.0,0.0,98,0.00,,---,0.00,VWS V14.01,2013-06-23 17:13:00,
2013-06-23 12:18:00,67.5,66.9,28.91,NNE,22,0.0,0.0,98,0.00,,---,0.00,VWS V14.01,2013-06-23 17:18:00,
2013-06-23 12:23:00,67.8,67.2,28.91,NNE,22,0.0,0.0,98,0.00,,---,0.00,VWS V14.01,2013-06-23 17:23:00,
2013-06-23 12:28:00,68.2,67.6,28.91,NNE,22,0.0,0.0,98,0.00,,---,0.00,VWS V14.01,2013-06-23 17:28:00,
2013-06-23 12:33:00,68.5,68.0,28.91,NNE,22,0.0,0.0,98,0.00,,---,0.00,VWS V14.01,2013-06-23 17:33:00,
2013-06-23 12:38:00,68.9,68.3,28.91,NNE,22,0.0,0.0,98,0.00,,---,0.00,VWS V14.01,2013-06-23 17:38:00,
2013-06-23 12:43:00,69.1,68.5,28.88,NNE,22,0.0,0.0,98,0.00,,---,0.00,VWS V14.01,2013-06-23 17:43:00,
2013-06-23 12:48:00,69.3,68.7,28.88,NNE,22,0.0,0.0,98,0.00,,---,0.00,VWS V14.01,2013-06-23 17:48:00,
2013-06-23 12:53:00,69.4,68.6,28.88,NNE,22,0.0,0.0,97,0.00,,---,0.00,VWS V14.01,2013-06-23 17:53:00,
2013-06-23 12:58:00,69.6,68.7,28.88,NNE,22,0.0,0.0,97,0.00,,---,0.00,VWS V14.01,2013-06-23 17:58:00,
2013-06-23 13:03:00,69.8,68.6,28.88,NNE,22,0.0,0.0,96,0.00,,---,0.00,VWS V14.01,2013-06-23 18:03:00,
2013-06-23 13:08:00,70.0,68.5,28.88,NNE,22,0.0,0.0,95,0.00,,---,0.00,VWS V14.01,2013-06-23 18:08:00,
2013-06-23 13:13:00,70.2,69.0,28.88,NNE,22,0.0,0.0,96,0.00,,---,0.00,VWS V14.01,2013-06-23 18:13:00,
2013-06-23 13:18:00,70.3,69.2,28.88,NNE,22,0.0,0.0,96,0.00,,---,0.00,VWS V14.01,2013-06-23 18:18:00,
2013-06-23 13:23:00,70.7,69.2,28.88,NNE,22,0.0,0.0,95,0.00,,---,0.00,VWS V14.01,2013-06-23 18:23:00,
2013-06-23 13:28:00,70.9,69.4,28.88,NNE,22,0.0,0.0,95,0.00,,---,0.00,VWS V14.01,2013-06-23 18:28:00,
2013-06-23 13:33:00,71.2,69.4,28.88,NNE,22,0.0,0.0,94,0.00,,---,0.00,VWS V14.01,2013-06-23 18:33:00,
2013-06-23 13:38:00,71.4,69.3,28.88,NNE,22,0.0,0.0,93,0.00,,---,0.00,VWS V14.01,2013-06-23 18:38:00,
2013-06-23 13:43:00,71.8,69.3,28.88,NNE,22,0.0,0.0,92,0.00,,---,0.00,VWS V14.01,2013-06-23 18:43:00,
2013-06-23 13:48:00,72.1,69.4,28.91,NNE,22,0.0,0.0,91,0.00,,---,0.00,VWS V14.01,2013-06-23 18:48:00,
2013-06-23 13:53:00,72.3,68.9,28.91,West,270,0.0,0.0,89,0.00,,---,0.00,VWS V14.01,2013-06-23 18:53:00,
2013-06-23 13:58:00,72.7,68.9,28.91,West,270,0.0,0.0,88,0.00,,---,0.00,VWS V14.01,2013-06-23 18:58:00,
2013-06-23 14:03:00,73.0,69.3,28.91,West,270,0.0,0.0,88,0.00,,---,0.00,VWS V14.01,2013-06-23 19:03:00,
2013-06-23 14:08:00,73.4,69.3,28.91,West,270,0.0,0.0,87,0.00,,---,0.00,VWS V14.01,2013-06-23 19:08:00,
2013-06-23 14:13:00,73.6,69.1,28.91,West,270,0.0,0.0,86,0.00,,---,0.00,VWS V14.01,2013-06-23 19:13:00,
2013-06-23 14:18:00,73.9,69.2,28.91,West,270,0.0,0.0,85,0.00,,---,0.00,VWS V14.01,2013-06-23 19:18:00,
2013-06-23 14:23:00,74.3,68.4,28.91,West,270,0.0,0.0,82,0.00,,---,0.00,VWS V14.01,2013-06-23 19:23:00,
2013-06-23 14:28:00,74.7,68.1,28.91,West,270,0.0,0.0,80,0.00,,---,0.00,VWS V14.01,2013-06-23 19:28:00,
2013-06-23 14:33:00,75.0,67.7,28.91,WNW,292,0.0,0.0,78,0.00,,---,0.00,VWS V14.01,2013-06-23 19:33:00,
2013-06-23 14:38:00,75.2,68.2,28.91,WNW,292,0.0,0.0,79,0.00,,---,0.00,VWS V14.01,2013-06-23 19:38:00,
2013-06-23 14:43:00,75.2,68.2,28.91,WNW,292,0.0,0.0,79,0.00,,---,0.00,VWS V14.01,2013-06-23 19:43:00,
2013-06-23 14:48:00,75.4,68.1,28.91,WNW,292,0.0,0.0,78,0.00,,---,0.00,VWS V14.01,2013-06-23 19:48:00,
2013-06-23 14:53:00,75.7,68.0,28.91,WNW,292,0.0,0.0,77,0.00,,---,0.00,VWS V14.01,2013-06-23 19:53:00,
2013-06-23 14:58:00,75.9,67.8,28.91,NE,45,1.6,1.6,76,0.00,,---,0.00,VWS V14.01,2013-06-23 19:58:00,
2013-06-23 15:03:00,76.1,66.8,28.91,NE,45,0.0,0.0,73,0.00,,---,0.00,VWS V14.01,2013-06-23 20:03:00,
2013-06-23 15:09:00,76.1,67.6,28.91,NE,45,0.0,0.0,75,0.00,,---,0.00,VWS V14.01,2013-06-23 20:09:00,
2013-06-23 15:14:00,76.3,67.4,28.91,NE,45,0.0,0.0,74,0.00,,---,0.00,VWS V14.01,2013-06-23 20:14:00,
2013-06-23 15:19:00,76.5,67.2,28.91,NE,45,0.0,0.0,73,0.00,,---,0.00,VWS V14.01,2013-06-23 20:19:00,
2013-06-23 15:24:00,76.6,66.9,28.91,NE,45,0.0,0.0,72,0.00,,---,0.00,VWS V14.01,2013-06-23 20:24:00,
2013-06-23 15:29:00,76.6,67.3,28.91,NE,45,0.0,0.0,73,0.00,,---,0.00,VWS V14.01,2013-06-23 20:29:00,
2013-06-23 15:34:00,76.6,67.7,28.91,NE,45,0.0,0.0,74,0.00,,---,0.00,VWS V14.01,2013-06-23 20:34:00,
2013-06-23 15:39:00,76.8,67.9,28.91,NE,45,0.0,0.0,74,0.00,,---,0.00,VWS V14.01,2013-06-23 20:39:00,
2013-06-23 15:44:00,76.8,67.1,28.91,ENE,68,0.0,0.0,72,0.00,,---,0.00,VWS V14.01,2013-06-23 20:44:00,
2013-06-23 15:49:00,77.0,67.7,28.91,ENE,68,0.0,0.0,73,0.00,,---,0.00,VWS V14.01,2013-06-23 20:49:00,
2013-06-23 15:54:00,77.0,67.7,28.91,ENE,68,0.0,0.0,73,0.00,,---,0.00,VWS V14.01,2013-06-23 20:54:00,
2013-06-23 15:59:00,77.0,67.3,28.91,ENE,68,0.0,0.0,72,0.00,,---,0.00,VWS V14.01,2013-06-23 20:59:00,
2013-06-23 16:04:00,77.2,67.9,28.91,ENE,68,0.0,0.0,73,0.00,,---,0.00,VWS V14.01,2013-06-23 21:04:00,
2013-06-23 16:09:00,77.2,67.9,28.91,East,90,0.0,0.0,73,0.00,,---,0.00,VWS V14.01,2013-06-23 21:09:00,
2013-06-23 16:14:00,77.2,68.3,28.91,NW,315,0.0,0.0,74,0.00,,---,0.00,VWS V14.01,2013-06-23 21:14:00,
2013-06-23 16:19:00,77.0,67.7,28.91,NW,315,0.0,0.0,73,0.00,,---,0.00,VWS V14.01,2013-06-23 21:19:00,
2013-06-23 16:24:00,76.8,67.5,28.91,NW,315,0.0,0.0,73,0.00,,---,0.00,VWS V14.01,2013-06-23 21:24:00,
2013-06-23 16:29:00,76.6,67.7,28.91,NW,315,0.0,0.0,74,0.00,,---,0.00,VWS V14.01,2013-06-23 21:29:00,
2013-06-23 16:34:00,76.5,67.2,28.91,NW,315,0.0,0.0,73,0.00,,---,0.00,VWS V14.01,2013-06-23 21:34:00,
2013-06-23 16:40:00,76.3,67.4,28.91,NW,315,0.0,0.0,74,0.00,,---,0.00,VWS V14.01,2013-06-23 21:40:00,
2013-06-23 16:45:00,76.3,67.4,28.91,NW,315,0.0,0.0,74,0.00,,---,0.00,VWS V14.01,2013-06-23 21:45:00,
2013-06-23 16:50:00,76.3,67.8,28.91,NW,315,0.0,0.0,75,0.00,,---,0.00,VWS V14.01,2013-06-23 21:50:00,
2013-06-23 16:55:00,76.5,67.9,28.91,NW,315,0.0,0.0,75,0.00,,---,0.00,VWS V14.01,2013-06-23 21:55:00,
2013-06-23 17:00:00,76.8,68.3,28.91,NW,315,1.1,1.1,75,0.00,,---,0.00,VWS V14.01,2013-06-23 22:00:00,
2013-06-23 17:05:00,77.2,68.7,28.91,NW,315,0.0,0.0,75,0.00,,---,0.00,VWS V14.01,2013-06-23 22:05:00,
2013-06-23 17:10:00,77.4,68.4,28.91,NW,315,0.0,0.0,74,0.00,,---,0.00,VWS V14.01,2013-06-23 22:10:00,
2013-06-23 17:15:00,77.5,68.6,28.91,NW,315,0.0,0.0,74,0.00,,---,0.00,VWS V14.01,2013-06-23 22:15:00,
2013-06-23 17:20:00,77.7,68.0,28.91,ENE,68,0.0,0.0,72,0.00,,---,0.00,VWS V14.01,2013-06-23 22:20:00,
2013-06-23 17:25:00,77.9,68.6,28.91,NW,315,0.0,0.0,73,0.00,,---,0.00,VWS V14.01,2013-06-23 22:25:00,
2013-06-23 17:30:00,77.9,68.6,28.91,NNW,338,0.0,0.0,73,0.00,,---,0.00,VWS V14.01,2013-06-23 22:30:00,
2013-06-23 17:35:00,78.1,67.9,28.91,NNW,338,0.0,0.0,71,0.00,,---,0.00,VWS V14.01,2013-06-23 22:35:00,
2013-06-23 17:40:00,78.1,68.3,28.91,NNW,338,0.0,0.0,72,0.00,,---,0.00,VWS V14.01,2013-06-23 22:40:00,
2013-06-23 17:45:00,78.1,68.3,28.91,NNW,338,0.0,0.0,72,0.00,,---,0.00,VWS V14.01,2013-06-23 22:45:00,
2013-06-23 17:51:00,78.3,68.5,28.91,NNW,338,0.0,0.0,72,0.00,,---,0.00,VWS V14.01,2013-06-23 22:51:00,
2013-06-23 17:56:00,78.3,68.1,28.91,NNW,338,0.0,0.0,71,0.00,,---,0.00,VWS V14.01,2013-06-23 22:56:00,
2013-06-23 18:01:00,78.3,67.3,28.88,NNW,338,0.0,0.0,69,0.00,,---,0.00,VWS V14.01,2013-06-23 23:01:00,
2013-06-23 18:06:00,78.1,66.7,28.88,North,0,0.0,0.0,68,0.00,,---,0.00,VWS V14.01,2013-06-23 23:06:00,
2013-06-23 18:11:00,77.9,66.1,28.88,WNW,292,0.0,0.0,67,0.00,,---,0.00,VWS V14.01,2013-06-23 23:11:00,
2013-06-23 18:16:00,77.7,65.5,28.88,WNW,292,0.0,0.0,66,0.00,,---,0.00,VWS V14.01,2013-06-23 23:16:00,
2013-06-23 18:21:00,77.7,65.5,28.88,WNW,292,0.0,0.0,66,0.00,,---,0.00,VWS V14.01,2013-06-23 23:21:00,
2013-06-23 18:26:00,77.5,65.7,28.88,WNW,292,0.0,0.0,67,0.00,,---,0.00,VWS V14.01,2013-06-23 23:26:00,
2013-06-23 18:31:00,77.5,65.7,28.88,WNW,292,0.0,0.9,67,0.00,,---,0.00,VWS V14.01,2013-06-23 23:31:00,
2013-06-23 18:36:00,77.4,66.0,28.88,WNW,292,0.0,0.0,68,0.00,,---,0.00,VWS V14.01,2013-06-23 23:36:00,
2013-06-23 18:41:00,77.2,65.8,28.88,WNW,292,0.0,0.0,68,0.00,,---,0.00,VWS V14.01,2013-06-23 23:41:00,
2013-06-23 18:46:00,77.2,66.2,28.88,WNW,292,0.0,0.0,69,0.00,,---,0.00,VWS V14.01,2013-06-23 23:46:00,
2013-06-23 18:51:00,77.2,66.2,28.88,WNW,292,0.0,0.0,69,0.00,,---,0.00,VWS V14.01,2013-06-23 23:51:00,
2013-06-23 18:56:00,77.2,66.7,28.88,WNW,292,0.0,0.0,70,0.00,,---,0.00,VWS V14.01,2013-06-23 23:56:00,
2013-06-23 19:01:00,77.2,66.7,28.88,WNW,292,0.0,0.0,70,0.00,,---,0.00,VWS V14.01,2013-06-24 00:01:00,
2013-06-23 19:06:00,77.0,66.5,28.88,WNW,292,0.0,0.0,70,0.00,,---,0.00,VWS V14.01,2013-06-24 00:06:00,
2013-06-23 19:11:00,77.0,66.5,28.88,WNW,292,0.0,0.0,70,0.00,,---,0.00,VWS V14.01,2013-06-24 00:11:00,
2013-06-23 19:16:00,77.0,66.9,28.88,WNW,292,0.0,0.0,71,0.00,,---,0.00,VWS V14.01,2013-06-24 00:16:00,
2013-06-23 19:21:00,76.8,67.1,28.88,WNW,292,0.0,0.0,72,0.00,,---,0.00,VWS V14.01,2013-06-24 00:21:00,
2013-06-23 19:26:00,76.8,67.1,28.88,WNW,292,0.0,0.0,72,0.00,,---,0.00,VWS V14.01,2013-06-24 00:26:00,
2013-06-23 19:31:00,76.8,67.1,28.88,WNW,292,0.0,0.0,72,0.00,,---,0.00,VWS V14.01,2013-06-24 00:31:00,
2013-06-23 19:36:00,76.6,67.3,28.88,WNW,292,0.9,0.9,73,0.00,,---,0.00,VWS V14.01,2013-06-24 00:36:00,
2013-06-23 19:42:00,76.5,67.2,28.88,WNW,292,0.0,0.0,73,0.00,,---,0.00,VWS V14.01,2013-06-24 00:42:00,
2013-06-23 19:47:00,76.3,67.4,28.88,WNW,292,0.0,0.0,74,0.00,,---,0.00,VWS V14.01,2013-06-24 00:47:00,
2013-06-23 19:52:00,76.3,67.8,28.88,WNW,292,0.0,0.0,75,0.00,,---,0.00,VWS V14.01,2013-06-24 00:52:00,
2013-06-23 19:57:00,76.1,68.0,28.88,WNW,292,0.0,0.0,76,0.00,,---,0.00,VWS V14.01,2013-06-24 00:57:00,
2013-06-23 20:02:00,75.9,67.8,28.88,WNW,292,0.0,0.0,76,0.00,,---,0.00,VWS V14.01,2013-06-24 01:02:00,
2013-06-23 20:07:00,75.9,67.8,28.88,WNW,292,0.0,0.0,76,0.00,,---,0.00,VWS V14.01,2013-06-24 01:07:00,
2013-06-23 20:12:00,75.7,68.0,28.88,WNW,292,0.0,0.0,77,0.00,,---,0.00,VWS V14.01,2013-06-24 01:12:00,
2013-06-23 20:17:00,75.6,67.8,28.91,WNW,292,0.0,0.0,77,0.00,,---,0.00,VWS V14.01,2013-06-24 01:17:00,
2013-06-23 20:22:00,75.6,67.8,28.91,WNW,292,0.0,0.0,77,0.00,,---,0.00,VWS V14.01,2013-06-24 01:22:00,
2013-06-23 20:27:00,75.4,67.7,28.91,WNW,292,0.0,0.0,77,0.00,,---,0.00,VWS V14.01,2013-06-24 01:27:00,
2013-06-23 20:32:00,75.4,67.7,28.91,WNW,292,0.0,0.0,77,0.00,,---,0.00,VWS V14.01,2013-06-24 01:32:00,
2013-06-23 20:37:00,75.4,68.1,28.91,WNW,292,0.0,0.0,78,0.00,,---,0.00,VWS V14.01,2013-06-24 01:37:00,
2013-06-23 20:42:00,75.2,67.9,28.91,WNW,292,0.0,0.0,78,0.00,,---,0.00,VWS V14.01,2013-06-24 01:42:00,
2013-06-23 20:47:00,75.2,68.2,28.91,WNW,292,0.0,0.0,79,0.00,,---,0.00,VWS V14.01,2013-06-24 01:47:00,
2013-06-23 20:52:00,75.0,68.1,28.91,WNW,292,0.0,0.0,79,0.00,,---,0.00,VWS V14.01,2013-06-24 01:52:00,
2013-06-23 20:57:00,75.0,68.1,28.91,WNW,292,0.0,0.0,79,0.00,,---,0.00,VWS V14.01,2013-06-24 01:57:00,
2013-06-23 21:02:00,74.8,68.3,28.91,WNW,292,0.0,0.0,80,0.00,,---,0.00,VWS V14.01,2013-06-24 02:02:00,
2013-06-23 21:07:00,74.8,68.3,28.91,WNW,292,0.0,0.0,80,0.00,,---,0.00,VWS V14.01,2013-06-24 02:07:00,
2013-06-23 21:12:00,74.8,68.3,28.91,WNW,292,0.0,0.0,80,0.00,,---,0.00,VWS V14.01,2013-06-24 02:12:00,
2013-06-23 21:17:00,74.8,68.3,28.91,WNW,292,0.0,0.0,80,0.00,,---,0.00,VWS V14.01,2013-06-24 02:17:00,
2013-06-23 21:22:00,74.7,68.1,28.91,WNW,292,0.0,0.0,80,0.00,,---,0.00,VWS V14.01,2013-06-24 02:22:00,
2013-06-23 21:27:00,74.7,68.1,28.91,WNW,292,0.0,0.0,80,0.00,,---,0.00,VWS V14.01,2013-06-24 02:27:00,
2013-06-23 21:32:00,74.5,68.3,28.91,WNW,292,0.0,0.0,81,0.00,,---,0.00,VWS V14.01,2013-06-24 02:32:00,
2013-06-23 21:37:00,74.5,68.3,28.91,WNW,292,0.0,0.0,81,0.00,,---,0.00,VWS V14.01,2013-06-24 02:37:00,
2013-06-23 21:42:00,74.5,68.3,28.91,WNW,292,0.0,0.0,81,0.00,,---,0.00,VWS V14.01,2013-06-24 02:42:00,
2013-06-23 21:47:00,74.5,68.3,28.94,WNW,292,0.0,0.0,81,0.00,,---,0.00,VWS V14.01,2013-06-24 02:47:00,
2013-06-23 21:52:00,74.5,68.3,28.94,WNW,292,0.0,0.0,81,0.00,,---,0.00,VWS V14.01,2013-06-24 02:52:00,
2013-06-23 21:57:00,74.5,68.6,28.94,WNW,292,0.0,0.0,82,0.00,,---,0.00,VWS V14.01,2013-06-24 02:57:00,
2013-06-23 22:02:00,74.5,68.6,28.94,WNW,292,0.0,0.0,82,0.00,,---,0.00,VWS V14.01,2013-06-24 03:02:00,
2013-06-23 22:07:00,74.5,68.6,28.94,WNW,292,0.0,0.0,82,0.00,,---,0.00,VWS V14.01,2013-06-24 03:07:00,
2013-06-23 22:12:00,74.3,68.8,28.94,WNW,292,0.0,0.0,83,0.00,,---,0.00,VWS V14.01,2013-06-24 03:12:00,
2013-06-23 22:17:00,74.3,68.8,28.94,WNW,292,0.0,0.0,83,0.00,,---,0.00,VWS V14.01,2013-06-24 03:17:00,
2013-06-23 22:22:00,74.3,69.2,28.94,ENE,68,1.1,1.1,84,0.00,,---,0.00,VWS V14.01,2013-06-24 03:22:00,
2013-06-23 22:28:00,73.9,69.2,28.94,NE,45,0.0,1.1,85,0.00,,---,0.00,VWS V14.01,2013-06-24 03:28:00,
2013-06-23 22:33:00,73.8,69.3,28.94,NE,45,0.0,0.0,86,0.00,,---,0.00,VWS V14.01,2013-06-24 03:33:00,
2013-06-23 22:38:00,73.6,69.1,28.94,NE,45,0.0,0.0,86,0.00,,---,0.00,VWS V14.01,2013-06-24 03:38:00,
2013-06-23 22:43:00,73.6,69.5,28.94,NE,45,0.0,0.0,87,0.00,,---,0.00,VWS V14.01,2013-06-24 03:43:00,
2013-06-23 22:48:00,73.4,69.3,28.94,NE,45,0.0,0.0,87,0.00,,---,0.00,VWS V14.01,2013-06-24 03:48:00,
2013-06-23 22:53:00,73.2,69.5,28.94,NE,45,0.0,0.0,88,0.00,,---,0.00,VWS V14.01,2013-06-24 03:53:00,
2013-06-23 22:58:00,73.2,69.8,28.94,NE,45,0.0,0.0,89,0.00,,---,0.00,VWS V14.01,2013-06-24 03:58:00,
2013-06-23 23:01:00,73.2,69.8,28.94,NE,45,0.0,0.0,89,0.00,,---,0.00,VWS V14.01,2013-06-24 04:01:00,
2013-06-23 23:03:00,73.2,70.1,28.94,NE,45,0.0,0.0,90,0.00,,---,0.00,VWS V14.01,2013-06-24 04:03:00,
2013-06-23 23:08:00,73.0,69.9,28.94,NE,45,0.0,0.0,90,0.00,,---,0.00,VWS V14.01,2013-06-24 04:08:00,
2013-06-23 23:13:00,72.9,69.8,28.94,NE,45,0.0,0.0,90,0.00,,---,0.00,VWS V14.01,2013-06-24 04:13:00,
2013-06-23 23:18:00,72.7,69.9,28.91,NE,45,0.0,0.0,91,0.00,,---,0.00,VWS V14.01,2013-06-24 04:18:00,
2013-06-23 23:23:00,72.5,69.7,28.91,NE,45,0.0,0.0,91,0.00,,---,0.00,VWS V14.01,2013-06-24 04:23:00,
2013-06-23 23:28:00,72.3,69.6,28.94,NE,45,0.0,0.0,91,0.00,,---,0.00,VWS V14.01,2013-06-24 04:28:00,
2013-06-23 23:34:00,72.3,69.9,28.94,NE,45,0.0,0.0,92,0.00,,---,0.00,VWS V14.01,2013-06-24 04:34:00,
2013-06-23 23:39:00,72.1,69.7,28.94,NE,45,0.0,0.0,92,0.00,,---,0.00,VWS V14.01,2013-06-24 04:39:00,
2013-06-23 23:44:00,72.0,69.8,28.94,NE,45,0.0,0.0,93,0.00,,---,0.00,VWS V14.01,2013-06-24 04:44:00,
2013-06-23 23:49:00,72.0,69.8,28.94,NE,45,0.0,0.0,93,0.00,,---,0.00,VWS V14.01,2013-06-24 04:49:00,
2013-06-23 23:54:00,71.8,69.7,28.94,NE,45,0.0,0.0,93,0.00,,---,0.00,VWS V14.01,2013-06-24 04:54:00,
2013-06-23 23:59:00,71.6,69.5,28.94,NE,45,0.0,0.0,93,0.00,,---,0.00,VWS V14.01,2013-06-24 04:59:00,